START_TIME,STEP,MOV.,M29,t_acc.,H22,t_acc.,H26,t_acc.,H30,t_acc.
1981-08-26 00:00:32.820 ,7,0,0.,24.0,0.,24.0,0.,24.0,0.,24.0
1981-08-26 00:00:56.820 ,6,1,0.,24.0,0.,24.0,0.,24.0,0.,24.0
1981-08-26 00:01:20.820 ,6,0,0.,24.0,0.,24.0,0.,24.0,0.,24.0
1981-08-26 00:01:44.820 ,5,1,0.,24.0,0.,24.0,0.,24.0,0.,24.0
1981-08-26 00:02:08.820 ,5,0,0.,24.0,0.,24.0,0.,24.0,0.,24.0
1981-08-26 00:02:32.820 ,4,1,0.,24.0,0.,24.0,0.,24.0,0.,24.0
1981-08-26 00:02:56.820 ,4,0,0.,24.0,0.,24.0,0.,24.0,0.,24.0
1981-08-26 00:03:20.820 ,3,1,0.,24.0,0.,24.0,0.,24.0,0.,24.0
1981-08-26 00:03:44.820 ,3,0,0.,24.0,0.,24.0,0.,24.0,0.,24.0
1981-08-26 00:04:08.820 ,0,0,0.,24.0,0.,24.0,0.,24.0,0.,24.0
1981-08-26 00:04:32.820 ,0,0,0.,24.0,0.,24.0,0.,24.0,0.,24.0
1981-08-26 00:04:56.820 ,1,1,0.,24.0,0.,24.0,0.,24.0,0.,24.0
1981-08-26 00:05:20.820 ,1,0,0.,24.0,0.,24.0,0.,24.0,0.,24.0
1981-08-26 00:05:44.820 ,0,1,0.,24.0,0.,24.0,0.,24.0,0.,24.0
1981-08-26 00:06:08.820 ,0,0,0.,24.0,0.,24.0,0.,24.0,0.,24.0
1981-08-26 00:06:32.820 ,0,1,0.,24.0,0.,24.0,0.,24.0,0.,24.0
1981-08-26 00:06:56.820 ,0,0,0.,24.0,0.,24.0,0.,24.0,0.,24.0
1981-08-26 00:07:20.820 ,1,1,0.,24.0,0.,24.0,0.,24.0,0.,24.0
1981-08-26 00:07:44.820 ,1,0,0.,24.0,0.,24.0,0.,24.0,0.,24.0
1981-08-26 00:08:08.820 ,2,1,0.,24.0,0.,24.0,0.,24.0,0.,24.0
1981-08-26 00:08:32.820 ,2,0,0.,24.0,0.,24.0,0.,24.0,0.,24.0
1981-08-26 00:08:56.820 ,3,1,0.,24.0,0.,24.0,0.,24.0,0.,24.0
1981-08-26 00:09:20.820 ,3,0,0.,24.0,0.,24.0,0.,24.0,0.,24.0
1981-08-26 00:09:44.820 ,4,1,0.,24.0,0.,24.0,0.,24.0,0.,24.0
1981-08-26 00:10:08.820 ,4,0,0.,24.0,0.,24.0,0.,24.0,0.,24.0
1981-08-26 00:10:32.820 ,5,1,0.,24.0,0.,24.0,0.,24.0,0.,24.0
1981-08-26 00:10:56.820 ,5,0,0.,24.0,0.,24.0,0.,24.0,0.,24.0
1981-08-26 00:11:20.820 ,6,1,0.,24.0,0.,24.0,0.,24.0,0.,24.0
1981-08-26 00:11:44.820 ,6,0,0.,24.0,0.,24.0,0.,24.0,0.,24.0
1981-08-26 00:12:08.820 ,7,1,0.,24.0,0.,24.0,0.,24.0,0.,24.0
1981-08-26 00:12:32.820 ,7,0,0.,24.0,0.,24.0,0.,24.0,0.,24.0
1981-08-26 00:12:56.820 ,7,1,0.,24.0,0.,24.0,0.,24.0,0.,24.0
1981-08-26 00:13:20.820 ,7,0,0.,24.0,0.,24.0,0.,24.0,0.,24.0
1981-08-26 00:13:44.820 ,6,1,0.,24.0,0.,24.0,0.,24.0,0.,24.0
1981-08-26 00:14:08.820 ,6,0,0.,24.0,0.,24.0,0.,24.0,0.,24.0
1981-08-26 00:14:32.820 ,5,1,0.,24.0,0.,24.0,0.,24.0,0.,24.0
1981-08-26 00:14:56.820 ,5,0,0.,24.0,0.,24.0,0.,24.0,0.,24.0
1981-08-26 00:15:20.820 ,4,1,0.,24.0,0.,24.0,0.,24.0,0.,24.0
1981-08-26 00:15:44.820 ,4,0,0.,24.0,0.,24.0,0.,24.0,0.,24.0
1981-08-26 00:16:08.820 ,3,1,0.,24.0,0.,24.0,0.,24.0,0.,24.0
1981-08-26 00:16:32.820 ,3,0,0.,24.0,0.,24.0,0.,24.0,0.,24.0
1981-08-26 00:16:56.820 ,2,1,0.,24.0,0.,24.0,0.,24.0,0.,24.0
1981-08-26 00:17:20.820 ,2,0,0.,24.0,0.,24.0,0.,24.0,0.,24.0
1981-08-26 00:17:44.820 ,1,1,0.,24.0,0.,24.0,0.,24.0,0.,24.0
1981-08-26 00:18:08.820 ,1,0,0.,24.0,0.,24.0,0.,24.0,0.,24.0
1981-08-26 00:18:32.820 ,0,1,0.,24.0,0.,24.0,0.,24.0,0.,24.0
1981-08-26 00:18:56.820 ,0,0,0.,24.0,0.,24.0,0.,24.0,0.,24.0
1981-08-26 00:19:20.820 ,0,1,0.,24.0,0.,24.0,0.,24.0,0.,24.0
1981-08-26 00:19:44.820 ,0,0,0.,24.0,0.,24.0,0.,24.0,0.,24.0
1981-08-26 00:20:08.820 ,1,1,0.,24.0,0.,24.0,0.,24.0,0.,24.0
1981-08-26 00:20:32.820 ,1,0,0.,24.0,0.,24.0,0.,24.0,0.,24.0
1981-08-26 00:20:56.820 ,2,1,0.,24.0,0.,24.0,0.,24.0,0.,24.0
1981-08-26 00:21:20.820 ,2,0,0.,24.0,0.,24.0,0.,24.0,0.,24.0
1981-08-26 00:21:44.820 ,3,1,0.,24.0,0.,24.0,0.,24.0,0.,24.0
1981-08-26 00:22:08.820 ,3,0,0.,24.0,0.,24.0,0.,24.0,0.,24.0
1981-08-26 00:22:32.820 ,4,1,0.,24.0,0.,24.0,0.,24.0,0.,24.0
1981-08-26 00:22:56.820 ,4,0,0.,24.0,0.,24.0,0.,24.0,0.,24.0
1981-08-26 00:23:20.820 ,5,1,0.,24.0,0.,24.0,0.,24.0,0.,24.0
1981-08-26 00:23:44.820 ,5,0,0.,24.0,0.,24.0,0.,24.0,0.,24.0
1981-08-26 00:24:08.820 ,6,1,0.,24.0,0.,24.0,0.,24.0,0.,24.0
1981-08-26 00:24:32.820 ,6,0,0.,24.0,0.,24.0,0.,24.0,0.,24.0
1981-08-26 00:24:56.820 ,7,1,0.,24.0,0.,24.0,0.,24.0,0.,24.0
1981-08-26 00:25:20.820 ,7,0,0.,24.0,0.,24.0,0.,24.0,0.,24.0
1981-08-26 00:25:44.820 ,7,1,0.,24.0,0.,24.0,0.,24.0,0.,24.0
1981-08-26 00:26:08.820 ,7,0,0.,24.0,0.,24.0,0.,24.0,0.,24.0
1981-08-26 00:26:32.820 ,6,1,0.,24.0,0.,24.0,0.,24.0,0.,24.0
1981-08-26 00:26:56.820 ,6,0,0.,24.0,0.,24.0,0.,24.0,0.,24.0
1981-08-26 00:27:20.820 ,5,1,0.,24.0,0.,24.0,0.,24.0,0.,24.0
1981-08-26 00:27:44.820 ,5,0,0.,24.0,0.,24.0,0.,24.0,0.,24.0
1981-08-26 00:28:08.820 ,4,1,0.,24.0,0.,24.0,0.,24.0,0.,24.0
1981-08-26 00:28:32.820 ,4,0,0.,24.0,0.,24.0,0.,24.0,0.,24.0
1981-08-26 00:28:56.820 ,3,1,0.,24.0,0.,24.0,0.,24.0,0.,24.0
1981-08-26 00:29:20.820 ,3,0,0.,24.0,0.,24.0,0.,24.0,0.,24.0
1981-08-26 00:29:44.820 ,2,1,0.,24.0,0.,24.0,0.,24.0,0.,24.0
1981-08-26 00:30:08.820 ,2,0,0.,24.0,0.,24.0,0.,24.0,0.,24.0
1981-08-26 00:30:32.820 ,1,1,0.,24.0,0.,24.0,0.,24.0,0.,24.0
1981-08-26 00:30:56.820 ,1,0,0.,24.0,0.,24.0,0.,24.0,0.,24.0
1981-08-26 00:31:20.820 ,0,1,0.,24.0,0.,24.0,0.,24.0,0.,24.0
1981-08-26 00:31:44.820 ,0,0,0.,24.0,0.,24.0,0.,24.0,0.,24.0
1981-08-26 00:32:08.820 ,0,1,0.,24.0,0.,24.0,0.,24.0,0.,24.0
1981-08-26 00:32:32.820 ,0,0,0.,24.0,0.,24.0,0.,24.0,0.,24.0
1981-08-26 00:32:56.820 ,1,1,0.,24.0,0.,24.0,0.,24.0,0.,24.0
1981-08-26 00:33:20.820 ,1,0,0.,24.0,0.,24.0,0.,24.0,0.,24.0
1981-08-26 00:33:44.820 ,2,1,0.,24.0,0.,24.0,0.,24.0,0.,24.0
1981-08-26 00:34:08.820 ,2,0,0.,24.0,0.,24.0,0.,24.0,0.,24.0
1981-08-26 00:34:32.820 ,3,1,0.,24.0,0.,24.0,0.,24.0,0.,24.0
1981-08-26 00:34:56.820 ,3,0,0.,24.0,0.,24.0,0.,24.0,0.,24.0
1981-08-26 00:35:20.820 ,4,1,0.,24.0,0.,24.0,0.,24.0,0.,24.0
1981-08-26 00:35:44.820 ,4,0,0.,24.0,0.,24.0,0.,24.0,0.,24.0
1981-08-26 00:36:08.820 ,5,1,0.,24.0,0.,24.0,0.,24.0,0.,24.0
1981-08-26 00:36:32.820 ,5,0,0.,24.0,0.,24.0,0.,24.0,0.,24.0
1981-08-26 00:36:56.820 ,6,1,0.,24.0,0.,24.0,0.,24.0,0.,24.0
1981-08-26 00:37:20.820 ,6,0,0.,24.0,0.,24.0,0.,24.0,0.,24.0
1981-08-26 00:37:44.820 ,7,1,0.,24.0,0.,24.0,0.,24.0,0.,24.0
1981-08-26 00:38:08.820 ,7,0,0.,24.0,0.,24.0,0.,24.0,0.,24.0
1981-08-26 00:38:32.820 ,7,1,0.,24.0,0.,24.0,0.,24.0,0.,24.0
1981-08-26 00:38:56.820 ,7,0,0.,24.0,0.,24.0,0.,24.0,0.,24.0
1981-08-26 00:39:20.820 ,6,1,0.,24.0,0.,24.0,0.,24.0,0.,24.0
1981-08-26 00:39:44.820 ,6,0,0.,24.0,0.,24.0,0.,24.0,0.,24.0
1981-08-26 00:40:08.820 ,5,1,0.,24.0,0.,24.0,0.,24.0,0.,24.0
1981-08-26 00:40:32.820 ,5,0,0.,24.0,0.,24.0,0.,24.0,0.,24.0
1981-08-26 00:40:56.820 ,4,1,0.,24.0,0.,24.0,0.,24.0,0.,24.0
1981-08-26 00:41:20.820 ,4,0,0.,24.0,0.,24.0,0.,24.0,0.,24.0
1981-08-26 00:41:44.820 ,0,0,0.,24.0,0.,24.0,0.,24.0,0.,24.0
1981-08-26 00:42:08.820 ,0,0,0.,24.0,0.,24.0,0.,24.0,0.,24.0
1981-08-26 00:42:32.820 ,0,0,0.,24.0,0.,24.0,0.,24.0,0.,24.0
1981-08-26 00:42:56.820 ,0,0,0.,24.0,0.,24.0,0.,24.0,0.,24.0
1981-08-26 00:43:20.820 ,0,0,0.,24.0,0.,24.0,0.,24.0,0.,24.0
1981-08-26 00:43:44.820 ,0,0,0.,24.0,0.,24.0,0.,24.0,0.,24.0
1981-08-26 00:44:08.820 ,0,0,0.,24.0,0.,24.0,0.,24.0,0.,24.0
1981-08-26 00:44:32.820 ,0,0,0.,24.0,0.,24.0,0.,24.0,0.,24.0
1981-08-26 00:44:56.820 ,0,0,0.,24.0,0.,24.0,0.,24.0,0.,24.0
1981-08-26 00:45:20.820 ,0,0,0.,24.0,0.,24.0,0.,24.0,0.,24.0
1981-08-26 00:45:44.820 ,0,0,0.,24.0,0.,24.0,0.,24.0,0.,24.0
1981-08-26 00:46:08.820 ,0,0,0.,24.0,0.,24.0,0.,24.0,0.,24.0
1981-08-26 00:46:32.820 ,0,0,0.,24.0,0.,24.0,0.,24.0,0.,24.0
1981-08-26 00:46:56.820 ,0,0,0.,24.0,0.,24.0,0.,24.0,0.,24.0
1981-08-26 00:47:20.820 ,0,0,0.,24.0,0.,24.0,0.,24.0,0.,24.0
1981-08-26 00:47:44.820 ,0,0,0.,24.0,0.,24.0,0.,24.0,0.,24.0
1981-08-26 00:48:08.820 ,0,0,0.,24.0,0.,24.0,0.,24.0,0.,24.0
1981-08-26 00:48:32.820 ,0,0,0.,24.0,0.,24.0,0.,24.0,0.,24.0
1981-08-26 00:48:56.820 ,0,0,0.,24.0,0.,24.0,0.,24.0,0.,24.0
1981-08-26 00:49:20.820 ,0,0,0.,24.0,0.,24.0,0.,24.0,0.,24.0
1981-08-26 00:49:44.820 ,0,0,0.,24.0,0.,24.0,0.,24.0,0.,24.0
1981-08-26 00:50:08.820 ,0,0,0.,24.0,0.,24.0,0.,24.0,0.,24.0
1981-08-26 00:50:32.820 ,0,0,0.,24.0,0.,24.0,0.,24.0,0.,24.0
1981-08-26 00:50:56.820 ,0,0,0.,24.0,0.,24.0,0.,24.0,0.,24.0
1981-08-26 00:51:20.820 ,0,0,0.,24.0,0.,24.0,0.,24.0,0.,24.0
1981-08-26 00:51:44.820 ,0,0,0.,24.0,0.,24.0,0.,24.0,0.,24.0
1981-08-26 00:52:08.820 ,0,0,0.,24.0,0.,24.0,0.,24.0,0.,24.0
1981-08-26 00:52:32.820 ,0,0,0.,24.0,0.,24.0,0.,24.0,0.,24.0
1981-08-26 00:52:56.820 ,0,0,0.,24.0,0.,24.0,0.,24.0,0.,24.0
1981-08-26 00:53:20.820 ,0,0,0.,24.0,0.,24.0,0.,24.0,0.,24.0
1981-08-26 00:53:44.820 ,0,0,0.,24.0,0.,24.0,0.,24.0,0.,24.0
1981-08-26 00:54:08.820 ,0,0,0.,24.0,0.,24.0,0.,24.0,0.,24.0
1981-08-26 00:54:32.820 ,0,0,0.,24.0,0.,24.0,0.,24.0,0.,24.0
1981-08-26 00:54:56.820 ,0,0,0.,24.0,0.,24.0,0.,24.0,0.,24.0
1981-08-26 00:55:20.820 ,0,0,0.,24.0,0.,24.0,0.,24.0,0.,24.0
1981-08-26 00:55:44.820 ,0,0,0.,24.0,0.,24.0,0.,24.0,0.,24.0
1981-08-26 00:56:08.820 ,0,0,0.,24.0,0.,24.0,0.,24.0,0.,24.0
1981-08-26 00:56:32.820 ,0,0,0.,24.0,0.,24.0,0.,24.0,0.,24.0
1981-08-26 00:56:56.820 ,0,0,0.,24.0,0.,24.0,0.,24.0,0.,24.0
1981-08-26 00:57:20.820 ,0,0,0.,24.0,0.,24.0,0.,24.0,0.,24.0
1981-08-26 00:57:44.820 ,0,0,0.,24.0,0.,24.0,0.,24.0,0.,24.0
1981-08-26 00:58:08.820 ,0,0,0.,24.0,0.,24.0,0.,24.0,0.,24.0
1981-08-26 00:58:32.820 ,0,0,0.,24.0,0.,24.0,0.,24.0,0.,24.0
1981-08-26 00:58:56.820 ,0,0,0.,24.0,0.,24.0,0.,24.0,0.,24.0
1981-08-26 00:59:20.820 ,0,0,0.,24.0,0.,24.0,0.,24.0,0.,24.0
1981-08-26 00:59:44.820 ,0,0,0.,24.0,0.,24.0,0.,24.0,0.,24.0
1981-08-26 01:00:08.820 ,0,0,0.,24.0,0.,24.0,0.,24.0,0.,24.0
